Вернуться в каталог

STARLINK-11481

АктивенСвязьVLEO
NORAD 62230·PAYLOAD·🇺🇸 United States

Запущен Dec 5, 2024 с Vandenberg Space Force Base

Loading…

Ближайшие Пролёты (ближайшие 24 часа)

TLE

СвежийSource: CelesTrak SupGP

Эпоха: Sep 15, 2026, 02:17 UTC

1 62230C 24231N   26258.09562500 -.00022377  00000+0 -18419-3 0  2581
2 62230  53.1576 247.9059 0001218  85.6034 326.9047 15.69739413    16

Отслеживайте STARLINK-11481 в реальном времени с AllMySat

Download on the App Store